DECAYED
Showing default

SKYKRAFT-1B, 55058 (Decayed)

Orbit data source: Space-Track

SKYKRAFT-1B, 55058 was a payload satellite owned by SkyKraft (AU) in LEO that was launched on Tue, 03 Jan 2023 UTC via an FALCON 9 launch vehicle from the Air Force Eastern Test Range (AFETR). Payload-class satellites include a variety of spacecraft equipped with specific instruments for various scientific and technological missions. These include communications satellites like Starlink; space stations such as the ISS; scientific satellites like the Hubble; Earth observation satellites from companies like Planet Labs, Umbra, and HawkEye 360; GPS; miniature CubeSats for education and research; and military/defense satellites.

Not visible in the next 10 days
Identifier
55058, 2023-001BB
Orbit
Decayed
Country
Flag of AUAU / AUS
Related business
Manufacturer
SkyKraft
Mission
Decayed Commercial Communications
Bus & Motor
SKYKRAFT, Unknown motor
Mass
~50 kg wet, ~50 kg dry
Launch date (UTC)
2023-01-03 (4 years ago)
Launch vehicle
FALCON 9
Launch site
Air Force Eastern Test Range (AFETR)
Object type
Payload
Rocket body
Debris
Shape & HBR
Box, 0.3 m
Radar Cross Section
0.065 m², Medium (>0.1 m² and < 1m²)

Expand to show TLE details & history
Last TLE update: 8 months ago

TLE from 8 months ago
0 SKYKRAFT-1B
1 55058U 23001BB  25344.66756283  .08723132  24885-5  40586-3 0  9994
2 55058  97.3144  63.1657 0008837 280.3473  79.6831 16.42441804164485
Epoch: 2025-12-10T16:01Z
TLE epoch observation values (Epoch: 2025-12-10T16:01:17.428Z)
Latitude
-0.00008°
Longitude
103.2085°
Altitude
161.542 km
Speed
7.81 km/s
True Right ascension
04h 12m 39s
True Declination
0° 00' 00"
Sunlit
Object was in full shadow at epoch
Visualization orbit readout
Latitude
Unknown
Longitude
Unknown
Altitude
Unknown
Speed
Unknown
Apparent Right ascension
Unknown
Apparent Declination
Unknown
Sunlit
N/A
Visualization observer readout
Local Sidereal Time
16:10:11
Azimuth
Unknown
Elevation
Unknown
Doppler factor
Unknown
Orbital elements
Apogee altitude
161.89 km
Perigee altitude
150.341 km
Semi-major axis
6,534.253 km
Eccentricity
0.00088
Inclination
97.3144°
RAAN
63.1657°
Arg. of periapsis
280.3473°
True anomaly
79.78275°
Mean anomaly
79.6831°
Eccentric anomaly
79.73292°
Mean motion
4.10912 °/min
Orbital period
87.61 mins
BSTAR
0.00040586
Loading maneuver chart data...
Computing Atmospheric mass density...

Documentation

Showing up to 5 results
|